Kuressaare current weather conditions

sailwx.info

Wind from 180 at 17 knots

Air temperature 6.0° C
Visibility: greater than 3.2 NM
Dewpoint 5.0° C

Last reported at 2017-Nov-23 23:00 UTC.
Time now 2017-Nov-24 00:21 UTC

Location: N 58°14' E 022°31'.
View on Google Maps.

See reports from other nearby stations

  
Tides and Currents Weather Stations Pressure Air Temp Water Temp Dewpoint Dewpoint Depression Visibility Wind Speed Wind Dir Waves Ship Positions
date/time (UTC)wind fromknots sea level pressurealtimeterstation pressurevisibilityair tempwater tempwave heightnotes
2017-Nov-23 23:00 180 17 3.2 6.0
2017-Nov-23 22:50 180 17 3.8 6.0
2017-Nov-23 22:30 180 15 3.2 6.0
2017-Nov-23 21:50 180 15 3.8 6.0
2017-Nov-23 21:20 180 15 3.8 5.0
2017-Nov-23 21:09 180 15 4.3 5.0
2017-Nov-23 20:50 180 17 3.8 5.0
2017-Nov-23 19:50 180 18 3.8 5.0
2017-Nov-23 18:50 180 18 4.3 5.0
2017-Nov-23 17:50 170 18 4.9 5.0
2017-Nov-23 16:50 170 17 4.3 5.0
2017-Nov-23 15:50 180 17 3.8 4.0
2017-Nov-23 14:50 190 17 4.3 4.0
2017-Nov-23 13:50 190 17 3.8 4.0
2017-Nov-23 12:50 170 17 4.9 4.0
2017-Nov-23 11:50 170 18 4.9 3.0
2017-Nov-23 10:50 180 19 4.3 3.0
2017-Nov-23 09:50 190 17 5.4 3.0
2017-Nov-23 08:50 180 20 5.4 3.0
2017-Nov-23 07:50 180 22 5.4 3.0 Light rain.
2017-Nov-23 06:50 170 21 2.4 2.0 Light rain drizzle. Mist.
2017-Nov-23 05:50 170 24 1.9 2.0 Rain.
2017-Nov-23 05:30 170 20 1.9 2.0 Light rain.
2017-Nov-23 05:18 170 22 2.1 2.0 Drizzle.
2017-Nov-23 05:10 170 22 1.8 2.0 Drizzle.
2017-Nov-23 04:57 170 25 2.0 2.0 Heavy drizzle.
2017-Nov-23 04:50 180 25 1.4 2.0 Heavy drizzle.
2017-Nov-23 04:37 180 26 1.4 2.0 Heavy drizzle.
2017-Nov-23 04:35 180 25 2.0 2.0 Heavy drizzle.
2017-Nov-23 04:27 170 24 2.6 3.0 Drizzle.
2017-Nov-23 04:24 170 25 2.5 3.0 Light rain.
2017-Nov-23 04:16 170 27 2.3 3.0 Light rain.
2017-Nov-23 04:15 170 27 2.3 3.0 Light rain.
2017-Nov-23 04:04 170 25 2.3 3.0 Light rain.
2017-Nov-23 03:51 160 27 2.3 3.0 Drizzle.
2017-Nov-23 03:50 160 27 4.3 3.0 Light rain.
2017-Nov-23 03:36 160 26 3.8 3.0 Light rain.
2017-Nov-23 03:25 160 25 3.8 3.0 Drizzle.
2017-Nov-23 03:21 160 24 4.9 3.0 Drizzle.
2017-Nov-23 03:09 160 24 5.4 3.0 Drizzle.
2017-Nov-23 02:50 160 24 3.8 2.0 Light rain.
2017-Nov-23 02:36 160 25 3.2 2.0 Light rain.
2017-Nov-23 02:15 160 22 3.2 2.0 Light rain.
2017-Nov-23 02:01 160 21 4.9 3.0 Drizzle.
2017-Nov-23 01:50 160 22 4.3 3.0 Light rain.
2017-Nov-23 01:22 150 21 4.9 3.0 Light rain.
2017-Nov-23 01:08 160 21 5.4 3.0 Drizzle.
2017-Nov-23 01:00 160 22 5.4 3.0 Light rain.
2017-Nov-23 00:50 160 21 5.4 3.0
2017-Nov-23 00:24 160 20 5.4 3.0
2017-Nov-23 00:10 160 21 5.4 3.0
2017-Nov-22 23:50 160 20 5.4 3.0
2017-Nov-22 22:50 150 20 5.4 3.0
2017-Nov-22 21:50 160 19 5.4 2.0
2017-Nov-22 20:50 160 19 5.4 2.0
2017-Nov-22 19:50 160 17 5.4 2.0
2017-Nov-22 19:00 170 13 5.4 2.0
2017-Nov-22 18:50 170 13 5.4 2.0
2017-Nov-22 18:31 170 13 5.4 2.0
2017-Nov-22 18:28 170 14 5.4 2.0
2017-Nov-22 18:05 170 13 5.4 2.0
2017-Nov-22 17:50 170 13 5.4 1.0
2017-Nov-22 17:34 170 13 5.4 1.0
2017-Nov-22 17:31 170 13 5.4 1.0
2017-Nov-22 17:18 170 14 5.4 1.0
2017-Nov-22 17:07 160 13 5.4 2.0
2017-Nov-22 17:03 160 13 5.4 2.0
2017-Nov-22 17:01 160 13 5.4 2.0
2017-Nov-22 16:50 160 12 5.4 2.0
2017-Nov-22 15:50 170 11 5.4 2.0
2017-Nov-22 14:50 070 2 4.3-1.0
2017-Nov-22 13:50 060 2 5.4 1.0
2017-Nov-22 12:50 100 2 5.4 1.0
2017-Nov-22 11:50 100 2 5.4 2.0
2017-Nov-22 10:50 5.4 1.0
2017-Nov-22 09:50 5.4-0.0
2017-Nov-22 08:50 4.3-1.0
2017-Nov-22 07:50 5.4-4.0
2017-Nov-22 06:50 280 1 4.9-5.0
2017-Nov-22 05:50 020 2 5.4-5.0
2017-Nov-22 04:50 020 0 5.4-5.0
2017-Nov-22 03:50 310 2 5.4-4.0
2017-Nov-22 03:08 5.4-5.0
2017-Nov-22 02:55 5.4-5.0
2017-Nov-22 02:50 5.4-5.0
2017-Nov-22 01:50 010 4 5.4-4.0
2017-Nov-22 00:50 290 2 5.4-5.0